Home   Weather   Emmendingen   Past weeks

Flag for Germany Past Weather in Emmendingen, Baden-Württemberg, Germany — Yesterday and Last 2 Weeks

Now
45 °F

Clear.


Feels Like: 45 °F
Forecast: 43 / 51 °F
Wind: 1 mph from Southeast

Location: Lahr

Current Time: Apr 30, 2017 at 5:46:06 am

Latest Report: Apr 30, 2017 at 4:00 am


Visibility: 41 mi

Pressure: 29.96 "Hg

Humidity: 61%

Dew Point: 33 °F

Location of EmmendingenLocation

Past Weather in Emmendingen — Graph

°F

Emmendingen Temperature Yesterday

Maximum temperature yesterday: 61 °F (at 6:00 pm)
Minimum temperature yesterday: 41 °F (at 7:00 am)
Average temperature yesterday: 50 °F

High & Low Weather Summary for the Past Weeks

 TemperatureHumidityPressure
High67 °F (Apr 24, 6:00 pm)100% (Apr 18, 12:00 am)30.61 "Hg (Apr 18, 12:00 am)
Low28 °F (Apr 20, 7:00 am)26% (Apr 21, 4:00 pm)29.78 "Hg (Apr 25, 6:00 am)
Average46 °F72%30.15 "Hg
* Reported Apr 15 4:00 am — Apr 30 4:00 am, Emmendingen, Weather by CustomWeather, © 2017

Note: Actual official high and low records may vary slightly from our data, if they occured in-between our weather recording intervals... More about our weather records

Advertising

Emmendingen Weather History for the Previous 24 Hours

Scroll right to see more
 ConditionsComfort  
Time TempWeatherWind HumidityBarometerVisibility
4:00 am
Sun, Apr 30
45 °FClear.1 mph61%29.96 "Hg40 mi
3:00 am47 °FClear.5 mph61%29.96 "Hg43 mi
1:00 am49 °FClear.2 mph58%29.97 "Hg43 mi
12:00 am48 °FClear.3 mph64%29.97 "Hg40 mi
10:00 pm
Sat, Apr 29
51 °FClear.1 mph62%29.98 "Hg25 mi
9:00 pm51 °FClear.3 mph58%29.97 "Hg40 mi
7:00 pm60 °FSunny.1 mph35%29.97 "Hg34 mi
6:00 pm61 °FSunny.2 mph37%29.99 "Hg31 mi
4:00 pm59 °FSunny.2 mph38%30.01 "Hg22 mi
3:00 pm58 °FSunny.3 mph43%30.03 "Hg19 mi
1:00 pm56 °FSunny.2 mph48%30.06 "Hg37 mi
12:00 pm55 °FPassing clouds.2 mph48%30.08 "Hg19 mi
10:00 am51 °FSunny.3 mph62%30.09 "Hg16 mi
9:00 am46 °FSunny.2 mph68%30.11 "Hg19 mi
7:00 am41 °FOvercast.1 mph86%30.11 "Hg14 mi
6:00 am42 °FOvercast.2 mph82%30.10 "Hg18 mi
Weather by CustomWeather, © 2017

See weather overviewHow to use our weather pages